Regional Weather Roundup
Issued by NWS Wakefield, VA

Home | Current Version | Previous Version | Text Only | Print | Product List | Glossary On
Versions: 1 2 3 4 5 6 7 8 9 10 11 12 13 14 15 16 17 18 19 20 21 22 23 24 25 26 27 28 29 30 31 32 33 34 35 36 37 38 39 40 41 42 43 44 45 46 47 48 49 50
000
ASUS41 KAKQ 270715
RWRAKQ

REGIONAL WEATHER ROUNDUP
NATIONAL WEATHER SERVICE WAKEFIELD VA
300 AM EDT TUE JUN 27 2017

Note: "fair" indicates few or no clouds below 12,000 feet with no
significant weather and/or obstructions to visibility. * = Denotes
station may not report precipitation (e.g., rain,snow,etc.),
thunder or fog.

VAZ042-051-052>054-056-270800-
NORTHERN VIRGINIA

CITY           SKY/WX    TMP DP  RH WIND       PRES   REMARKS
WASH NATIONAL  PTCLDY    71  51  49 N7        29.99S
DULLES         PTCLDY    67  48  50 NW3       30.00S
FORT BELVOIR   PTCLDY    60  55  84 SE3       29.99S
QUANTICO       CLEAR     64  60  87 NW7       30.00S
FREDERICKSBRG* PTCLDY    61  56  84 CALM      29.99S
STAFFORD*      PTCLDY    55  55 100 CALM      30.04S
WARRENTON      MOCLDY    56  52  86 CALM      30.01R
CULPEPER*      CLOUDY    58  57  96 CALM      30.02S
MANASSAS*      PTCLDY    58  55  90 NW3       30.01S
LEESBURG*      PTCLDY    64  54  68 CALM      30.01S
WINCHESTER     CLOUDY    64  46  52 W3        30.02S
FRONT ROYAL*   MOSUNNY   57  52  82 CALM      30.03R
LURAY*         MOSUNNY   57  52  82 W3        30.04S
$$

VAZ048-049-060>072-079>083-270800-
CENTRAL AND SOUTH CENTRAL VIRGINIA

CITY           SKY/WX    TMP DP  RH WIND       PRES   REMARKS
RICHMOND       PTCLDY    64  56  75 S3        29.99S
CHESTERFIELD*  FAIR      62  56  80 CALM      30.00S
PETERSBURG*    PTCLDY    56  56  99 CALM      30.00S
HANOVER        CLEAR     61  55  81 CALM      30.01R
TAPPAHANNOCK*  CLEAR     61  61 100 CALM      30.01R
QUINTON*       FAIR      59  59 100 MISG      29.98F
CHARLOTTSVILLE MOCLDY    67  50  54 CALM      30.01F
GORDONSVILLE*  MOSUNNY   56  55  97 CALM      30.01S
ORANGE*        PTCLDY    55  54  94 CALM      30.02S
LOUISA*        MOCLDY    59  57  94 CALM      30.00S
BUMPASS*       PTSUNNY   60  57  92 CALM      30.01S
FARMVILLE*     PTCLDY    62  56  78 CALM      30.00S
CREWE*         PTSUNNY   61  57  87 CALM      30.00S
FORT PICKETT*  FAIR      63  56  77 SW3       30.01S
CHASE CITY*    FAIR      63  63  99 CALM      30.01S
CLARKSVILLE*   FAIR      61  61 100 CALM      30.01S
SOUTH HILL*    CLEAR     59  58  99 CALM      30.06F
LAWRENCEVILLE* FAIR      63  58  84 CALM      30.00F
EMPORIA*       PTCLDY    61  59  94 CALM      30.02S
$$

VAZ088>098-270800-
SOUTHEAST VIRGINIA

CITY           SKY/WX    TMP DP  RH WIND       PRES   REMARKS
NORFOLK        PTCLDY    71  61  70 S5        30.00F
VIRGINIA BEACH CLOUDY    70  60  70 S3        30.00S
NORFOLK NAVAL  CLOUDY    72  59  63 S5        30.01F
WEST POINT*    CLEAR     62  60  91 CALM      30.00F
SALUDA*        FAIR      66  60  81 S3        29.99S
NEWPORT NEWS   PTCLDY    70  61  73 S7        30.00S
LANGLEY AFB    CLOUDY    72  61  68 SW5       30.01S
FORT EUSTIS    CLOUDY    71  62  72 S5        29.98S
WILLIAMSBURG*  MOCLDY    70  63  78 CALM      30.00F
HR EXEC AP*    FAIR      63  57  82 CALM      29.99S
FRANKLIN*      PTCLDY    63  61  94 CALM      30.01S
US460-WAKEFLD  PTCLDY    62  61  96 CALM      30.00F
$$

VAZ020-022-025-037-045-270800-
WEST CENTRAL AND SOUTHWEST VIRGINIA

CITY           SKY/WX    TMP DP  RH WIND       PRES   REMARKS
STAUNTON*      PTCLDY    53  49  87 CALM      30.07S
WAYNESBORO*    MOSUNNY   55  51  87 N5        30.05F
HOT SPRINGS VA CLEAR     54  37  54 W12G17    30.12F
LYNCHBURG      CLEAR     59  52  77 W3        30.03F
DANVILLE       CLEAR     59  59 100 CALM      30.02F
SOUTH BOSTON*  FAIR      61  60  94 CALM      30.02S
MARTINSVILLE   CLEAR     56  55  97 CALM      30.08R FOG
ROANOKE        CLEAR     66  49  54 CALM      30.07F
BLACKSBURG     CLEAR     56  51  85 CALM      30.13S
DUBLIN*        CLEAR     58  48  71 CALM      30.12S
MARION*        CLEAR     54  51  89 CALM      30.15S
HILLSVILLE*    PTCLDY    58  49  73 CALM      30.11S
RICHLANDS*     PTSUNNY   56  22  26 CALM      30.15R
WISE*          CLOUDY    55  48  76 CALM      30.16S
ABINGDON*      PTCLDY    57  54  89 CALM      30.12S
$$

MDZ021>025-VAZ099-100-270800-
SOUTHERN MARYLAND AND THE DELMARVA PENINSULA

CITY           SKY/WX    TMP DP  RH WIND       PRES   REMARKS
PATUXENT RIVER CLEAR     68  60  75 S6        29.98S
BAY BRIDGE APT PTCLDY    72  59  64 NW5       29.98S
LEONARDTOWN    CLEAR     63  59  88 CALM      30.00S
DOVER          CLEAR     66  59  77 S9        29.96S
GEORGETOWN     NOT AVBL
EASTON         CLEAR     67  61  78 CALM      30.01S
CAMBRIDGE      PTCLDY    64  61  88 CALM      29.98S
SALISBURY      CLEAR     64  61  90 S3        29.98F
OCEAN CITY     CLEAR     71  65  81 S5        29.99F
WALLOPS ISLAND MOCLDY    70  62  76 S8        29.99F
ACCOMACK*      CLOUDY    70  60  71 SW6       29.99F
$$

NCZ012>017-030>032-270800-
NORTH CENTRAL AND EASTERN NORTH CAROLINA

CITY           SKY/WX    TMP DP  RH WIND       PRES   REMARKS
ROANOKE RAPIDS FAIR      63  63 100 CALM      30.01S
RALEIGH        PTCLDY    64  58  80 CALM      30.02S
ELIZABETH CITY MOCLDY    68  65  90 S5        30.01S
AHOSKIE*         N/A     64  63  96 CALM      30.01S
EDENTON*       MOCLDY    74  65  75 CALM      30.02S
CURRITUCK*     MOCLDY    70  65  84 CALM      30.02S
KILL DEVIL HLS MOCLDY    69  63  79 CALM      30.01S
MANTEO         MOCLDY    65  63  91 CALM      30.02F
CAPE HATTERAS  PTCLDY    67  64  90 CALM      30.01F
TARBORO*       NOT AVBL
GOLDSBORO      CLOUDY    66  66  99 CALM      30.00S
WASHINGTON       N/A    N/A N/A N/A CALM      30.02S
GREENVILLE     CLOUDY    68  64  88 CALM      30.03S
NEW BERN       CLEAR     65  65 100 S3        30.03S
WILMINGTON     CLOUDY    66  65  96 CALM      30.02S
$$

VAZ048-270800-
ELSEWHERE

CITY           SKY/WX    TMP DP  RH WIND       PRES   REMARKS
HARRISBURG PA  NOT AVBL
BALTIMORE      CLOUDY    68  53  58 CALM      29.98S
ANNAPOLIS      CLEAR     67  61  81 W7        29.98S
ANDREWS AFB    PTCLDY    64  55  74 CALM      29.98S
PHILADELPHIA   CLOUDY    64  57  78 NW8       30.01R
HENDERSON NC   PTCLDY    59  57  94 CALM      30.02S
GREENSBORO     MOCLDY    66  59  78 NW5       30.03F
ROCKY MOUNT    CLOUDY    67  66  97 CALM      30.01S
$$

VAZ100-270800-
MARINE

STATION/POSITION TIME  TEMP    WIND        PRES    WAVE   SWELL
                       AIR SEA DIR/SP/G            HT/PER HT/PER
                 (UTC) (F)     (DEG/KT/KT) (MB)    (FT/S) (FT/S)
BRANDYWINE LGT   0648          210/ 13/ 15   N/A
CAPE MAY NJ      0648   68 67  170/  5/  7 1015.0F
LEWES DE         0648   69 71  210/  4/  7 1015.2F
15NM E FENWICK I 0650   70 68  180/ 10/ 10 1016.1F   1/ 8   2/ 8
OCEAN-CITY-INLET 0648   69 68  210/  5/  6 1015.8F
WACHAPREAGUE VA  0648   72 76  190/  5/  7 1015.4F
THOMAS POINT MD  0700   72 77  280/  8/  9   N/A
GOOSES REEF MD   0650   73     290/ 10/ 10 1015.9R
COVE POINT MD    0648   71     280/  8/ 10 1015.6F
SOLOMONS ISLAND  0648   71 79  300/  4/  7   N/A
BISHOPS HEAD MD  0648   76 78  210/ 13/ 16 1015.0F
PINEY POINT MD   0642          240/  6/  8   N/A
POTOMAC MD       0650   73     210/ 14/ 16 1014.2F
CAMBRIDGE MD     0648   69 81              1015.7F
LEWISETTA VA     0648   70 79  230/  8/  9 1015.2F
RAPPAHANNOCK LGT 0642          190/ 15/ 17 1016.0F
STINGRAY PT      0650   75     230/ 10/ 12 1015.2F
YORK RVR RNG VA  0648   75     210/ 11/ 12 1015.8F
YORKTOWN VA      0648   73 79  200/  5/  8 1015.3F
JAMESTOWN VA     0650   71     170/  6/  8   N/A
DOMINION TERM VA 0648   74     200/  9/ 10 1015.9F
KIPTOPEKE VA     0648      74  190/  7/ 10   N/A
CHES BAY BRIDGE  0648   73 71  210/  7/ 10 1015.7F
CAPE HENRY VA    0648   72     190/  7/  9   N/A
WILLOUBY STN VA  0648   75     200/ 11/ 13 1015.5F
S CRANEY ISL VA  0648   73     200/  6/  9 1015.7F
CAPE HENRY BUOY  0630      72                N/A     1/ 8
1ST LANDING BUOY 0650   73                 1015.9F
CAPE CHARLES BUO 0651      71                N/A     1/ 9
64NM E OF VA BCH 0650   73 73  150/  4/  6 1016.8F   2/ 8   2/ 8
DUCK PIER NC     0648   72 71  160/  6/  6 1015.9F
44100 DUCK FRF   0605      72                N/A     1/ 8
OREGON INLET NC  0648          110/  3/  3   N/A
HATTERAS NC      0648   74 78   CALM  /  1 1016.2F
DIAMOND SHLS NC  0650   77 81  360/  4/  6 1016.2F   2/ 8   2/ 8
CAPE LOOKOUT NC  0600   76        CALM     1016.2F
$$



USA.gov is the U.S. government's official web portal to all federal, state and local government web resources and services.